Find Starlink 30761

NORAD ID: 58134 Int'l Des: 2023-162 Owner: SPXS Country: US Constellation: starlink operational
LEOCIRCULAR

当前视图

正在加载3D地球...

About Starlink 30761

Starlink 30761 (NORAD 58134) is a starlink constellation satellite (v2 mini) launched Oct 22, 2023 by SPXS of US. It operates in LEO, CIRCULAR orbit with a mass of 730.00 kg.

即将过境

Passes for default location (London). Set your location on the main map for personalized predictions.

高度历史

Loading altitude history...

两行轨道根数

1 58134U 23162S 26263.00493169 -.00000493 00000-0 -84126-5 0 9990
2 58134 43.0025 115.2062 0001300 272.7158 87.3544 15.27570020162021
Epoch: Sep 20, 2026 • Age: 16 hours

当前状态

高度 482.4 km
远地点 / 近地点 N/A
速度 7.63 km/s
星下点 10.06°N, 32.89°E
发射日期 Oct 22, 2023
运行时间 2.9 years
类型 internet

技术详情

分类 Payload
质量 730.00 kg
干质量 700.00 kg
长度 0.30 m
跨度 29.00 m
形状 ? Box + pan
制造商 SPXS
平台类型 Starlink V2M
阶段状态 In Orbit
所有者/国家 SPXS/US

Most Searched